Regional Weather Roundup
Issued by NWS

Home | Current Version | Previous Version | Text Only | Print | Product List | Glossary Off
Versions: 1 2 3 4 5 6 7 8 9 10 11 12 13 14 15 16 17 18 19 20 21 22 23 24 25 26 27 28 29 30 31 32 33 34 35 36 37 38 39 40 41 42 43 44 45 46 47 48 49 50

000
ASUS43 KLSX 221859
RWRMO

WEATHER SUMMARY FOR MISSOURI
NATIONAL WEATHER SERVICE SPRINGFIELD MO
200 PM CDT FRI AUG 22 2014

NOTE: "FAIR" INDICATES FEW OR NO CLOUDS BELOW 12,000 FEET WITH NO
       SIGNIFICANT WEATHER AND/OR OBSTRUCTIONS TO VISIBILITY.
       CURRENT SKY AND/OR WEATHER CONDITIONS ARE NOT AVAILABLE FOR
       CHILLICOTHE AND FARMINGTON.

MOZ001>031-035>038-043-044-053-054-222000-
...NORTHERN AND WESTERN MISSOURI...

CITY           SKY/WX    TMP DP  RH WIND       PRES   REMARKS
KANSAS CTY INT CLOUDY    88  73  61 S10       29.94S HX  95
KANSAS C DTWN  PTSUNNY   93  74  53 SE7       29.92S HX 103
LEE`S SUMMIT   MOSUNNY   88  73  61 VRB6      29.95F HX  95
ST JOSEPH      CLOUDY    83  75  77 S10       29.92S HX  90
KIRKSVILLE     PTSUNNY   85  74  69 VRB3      29.97F HX  92

$$
MOZ066>068-077>081-088>096-101>105-222000-
...SOUTHWEST MISSOURI...

CITY           SKY/WX    TMP DP  RH WIND       PRES   REMARKS
SPRINGFIELD    SUNNY     97  67  37 SW13      30.00F HX 101
JOPLIN         SUNNY     97  69  40 S17G24    29.97F HX 103

$$
MOZ032>034-039>042-045>050-055>058-069>072-222000-
...CENTRAL MISSOURI...

CITY           SKY/WX    TMP DP  RH WIND       PRES   REMARKS
COLUMBIA       MOSUNNY   92  72  51 CALM      29.97F HX  99
JEFFERSON CITY MOSUNNY   89  74  60 SE5       29.95F HX  98
ROLLA          MOSUNNY   94  70  45 VRB5      29.99F HX 100
SEDALIA        MOSUNNY   92  74  55 VRB7      29.97F HX 101
OSAGE BEACH    MOSUNNY   95  72  46 CALM      29.96F HX 103

$$
MOZ051-052-059>065-222000-
...EAST CENTRAL MISSOURI...

CITY           SKY/WX    TMP DP  RH WIND       PRES   REMARKS
ST LOUIS INTL  PTSUNNY   93  73  52 VRB6      29.98F HX 102
SPIRIT OF STL  PTSUNNY   90  75  61 VRB5      29.97F HX 100
ST CHARLES     PTSUNNY   89  74  60 S5        29.96F HX  98

$$
MOZ072>076-082>087-097>100-106>115-222000-
...SOUTH CENTRAL AND SOUTHEAST MISSOURI...

CITY           SKY/WX    TMP DP  RH WIND       PRES   REMARKS
CAPE GIRARDEAU MOSUNNY   92  76  59 SW3       30.00F HX 104
FARMINGTON     PTSUNNY   93  72  49 SE7       30.03F HX 100
POPLAR BLUFF   PTSUNNY   91  73  55 S7        29.99F HX  99
WEST PLAINS    SUNNY     94  70  45 VRB5      30.04F HX 100

$$



USA.gov is the U.S. government's official web portal to all federal, state and local government web resources and services.